Regional Weather Roundup
Issued by NWS

Home | Current Version | Previous Version | Text Only | Print | Product List | Glossary Off
Versions: 1 2 3 4 5 6 7 8 9 10 11 12 13 14 15 16 17 18 19 20 21 22 23 24 25 26 27 28 29 30 31 32 33 34 35 36 37 38 39 40 41 42 43 44 45 46 47 48 49 50

000
ASUS43 KLMK 230402
RWRKY
KENTUCKY REGIONAL WEATHER ROUNDUP
NATIONAL WEATHER SERVICE LOUISVILLE KY
1200 AM EDT SAT JUL 23 2016

NOTE "FAIR" INDICATES FEW OR NO CLOUDS BELOW 12,000 FEET
WITH NO SIGNIFICANT WEATHER AND/OR OBSTRUCTIONS TO VISIBILITY.

KYZ001>023-026-027-061>063-070>075-230500-
WESTERN AND SOUTH CENTRAL KENTUCKY

CITY           SKY/WX    TMP DP  RH WIND       PRES   REMARKS
PADUCAH        CLOUDY    77  74  90 SE3       30.01F
HENDERSON      PTCLDY    75  72  88 CALM      30.01F
OWENSBORO      CLOUDY    75  73  93 CALM      30.03F
HOPKINSVILLE   CLOUDY    77  72  84 N6        30.03F
BOWLING GREEN  LGT RAIN  76  74  93 E3        30.05F
GLASGOW        NOT AVBL
$$

KYZ024-025-028>034-038-045-046-053-230500-
NORTH CENTRAL KENTUCKY

CITY           SKY/WX    TMP DP  RH WIND       PRES   REMARKS
LOUISVILLE/SDF CLOUDY    78  69  73 S6        30.04S
LOUISVILLE/LOU CLOUDY    78  70  76 CALM      30.04S
FORT KNOX      CLOUDY    73  72  94 E2        30.03F
$$

KYZ035>037-039>044-047>052-055>060-089>105-230500-
NORTHEAST KENTUCKY

CITY           SKY/WX    TMP DP  RH WIND       PRES   REMARKS
LEXINGTON      CLEAR     74  70  87 S6        30.06F
COVINGTON      PTCLDY    76  71  85 S7        30.06R
FRANKFORT      CLEAR     76  70  82 CALM      30.04S
$$

KYZ054-064>069-076>088-106>120-230500-
SOUTHEAST KENTUCKY

CITY           SKY/WX    TMP DP  RH WIND       PRES   REMARKS
JACKSON        CLOUDY    71  69  93 CALM      30.09R
LONDON         CLOUDY    74  69  85 NW3       30.07F
SOMERSET       MOCLDY    70  70 100 CALM      30.08S
MIDDLESBORO    MOCLDY    77  73  87 CALM      30.07S
MONTICELLO     CLOUDY   N/A N/A N/A W5        30.08F
$$




USA.gov is the U.S. government's official web portal to all federal, state and local government web resources and services.